Hourly Data Report for October 25, 2014

All times are specified in Local Standard Time (LST). Add 1 hour to adjust for Daylight Saving Time where and when it is observed.

BAKER LAKE A
NUNAVUT

64°17'56.000" N
96°04'40.000" W
18.60 m
2300503
71926
YBK

Download Data

Hourly Data (October 2014)
Hourly Data Report for October 25, 2014
Temp Definition
°C
Dew Point Temp Definition
°C
Rel Hum Definition
%
Wind Dir Definition
10's deg

Wind Spd Definition
km/h
Visibility Definition
km
Stn Press Definition
kPa
Hmdx Definition


Wind Chill Definition


Weather Definition


TIME
00:00 Legend Double Dagger -4.4 -6.6 85 8 46 24.1 100.73   -14 Cloudy
01:00 Legend Double Dagger -5.0 -6.8 87 8 38 24.1 100.74   -14 Blowing Snow
02:00 Legend Double Dagger -5.4 -7.2 87 8 34 24.1 100.72   -14 Blowing Snow
03:00 Legend Double Dagger -5.2 -7.0 87 8 38 24.1 100.73   -14 Snow,Blowing Snow
04:00 Legend Double Dagger -4.8 -6.8 86 8 41 24.1 100.70   -14 Snow,Blowing Snow
05:00 Legend Double Dagger -4.7 -6.5 87 8 34 24.1 100.73   -13 Snow,Blowing Snow
06:00 Legend Double Dagger -5.0 -6.8 87 8 34 24.1 100.74   -13 Snow
07:00 Legend Double Dagger -5.1 -6.8 88 8 31 24.1 100.73   -13 Snow
08:00 Legend Double Dagger -4.8 -6.3 89 7 26 8.1 100.78   -12 Snow,Blowing Snow
09:00 Legend Double Dagger -4.7 -6.5 87 7 27 24.1 100.78   -12 Snow,Blowing Snow
10:00 Legend Double Dagger -5.0 -7.0 86 7 30 24.1 100.78   -13 Blowing Snow
11:00 Legend Double Dagger -4.8 -6.5 88 7 25 8.1 100.82   -12 Snow,Blowing Snow
12:00 Legend Double Dagger -4.7 -6.7 86 7 26 24.1 100.81   -12 Snow,Blowing Snow
13:00 Legend Double Dagger -4.8 -6.5 88 7 26 6.4 100.83   -12 Snow,Blowing Snow
14:00 Legend Double Dagger -4.8 -6.5 88 6 22 6.4 100.85   -12 Snow,Blowing Snow
15:00 Legend Double Dagger -4.9 -6.6 88 6 18 8.1 100.85   -11 Snow,Blowing Snow
16:00 Legend Double Dagger -5.2 -7.3 85 7 23 16.1 100.88   -12 Snow,Blowing Snow
17:00 Legend Double Dagger -5.5 -7.9 83 6 18 24.1 100.90   -12 LegendNANA
18:00 Legend Double Dagger -5.8 -7.8 86 5 15 24.1 100.89   -12 Cloudy
19:00 Legend Double Dagger -5.9 -7.7 87 5 11 24.1 100.88   -11 Snow
20:00 Legend Double Dagger -6.1 -7.8 88 3 9 24.1 100.88   -10 Snow
21:00 Legend Double Dagger -6.2 -7.7 89 1 8 24.1 100.85   -10 Snow
22:00 Legend Double Dagger -6.0 -7.7 88 1 10 24.1 100.84   -10 Snow
23:00 Legend Double Dagger -6.2 -7.6 90 35 9 24.1 100.84   -10 Snow

Notes on Data Quality.

Legend

  • E = Estimated
  • M = Missing
  • NA = Not Available
  • ‡ = Partner data that is not subject to review by the National Climate Archives
Date modified: